User: anonymous   Login
Location: Brede
(50.9167°N, 0.6000°E)
Time: 08:57:18
(UTC+00:00)
Language:

Cosmos 1603 - Orbit

View from above orbital plane
View from above orbital plane
View from above satellite
View from above satellite

Ground track
Ground track

The orbit data is extracted from the following two-line orbital elements,

1 15333U 84106A   20293.58639350 +.00000079 +00000-0 +66429-4 0  9996
2 15333 071.0281 056.7606 0018455 154.9142 205.2881 14.14109871860786
Epoch (UTC): 19 October 2020 14:04:24
Eccentricity: 0.0018455
inclination: 71.0281°
perigee height: 832 km
apogee height: 858 km
right ascension of ascending node: 56.7606°
argument of perigee: 154.9142°
revolutions per day: 14.14109871
mean anomaly at epoch: 205.2881°
orbit number at epoch: 86078

The dashed part of the orbit path shows where the satellite is in the earth's shadow,  

DLR